[[{"header":{"parameterUnit":"m.s-1","parameterCategory":1,"la1":30.2991,"la2":30.254,"lo1":-89.0895,"lo2":-89.0444,"dy":0.0017,"dx":0.0017,"nx":28,"ny":28,"refTime":"2024-05-04T09:00:00:Z","depth":0,"parameterNumber":2,"parameterNumberName":"U-component_of_WINDS"},"data":[0,0,0,0,0,0,0,0,0,0,0,0,0,0,0,0,0,0,0,0,0,0,0,0,0,0,0,0,0,0,0,0,0,0,0,0,0,0,0,0,0,0,0,0,0,0,0,0,0,0,0,0,0,0,0,0,0,0,-0.3892,-0.3892,0,-0.3876,-0.3876,-0.3876,-0.3864,-0.3864,-0.3864,-0.3864,-0.3847,-0.3847,-0.3847,0,0,0,0,0,0,0,0,0,0,0,0,0,-0.3912,-0.3912,-0.3892,-0.3892,-0.3892,-0.3876,-0.3876,-0.3876,-0.3864,-0.3864,-0.3864,-0.3864,-0.3847,-0.3847,-0.3847,0,0,0,0,0,0,0,0,0,0,0,0,0,-0.3901,-0.3912,-0.3892,-0.3884,-0.3883,-0.3876,-0.3876,-0.3876,-0.3864,-0.3864,-0.3864,-0.3864,-0.3848,-0.3847,-0.3847,-0.3847,0,0,-0.3845,-0.3845,0,0,0,0,0,0,0,0,-0.3902,-0.39,-0.3885,-0.3884,-0.3883,-0.3872,-0.3877,-0.3866,-0.3864,-0.3871,-0.3864,-0.3863,-0.3856,-0.3854,-0.3852,-0.3846,-0.3845,-0.3845,-0.3845,-0.3845,-0.3844,0,0,0,0,0,0,0,-0.3902,-0.3901,-0.3886,-0.3885,-0.3884,-0.3881,-0.3879,-0.3875,-0.3865,-0.3871,-0.387,-0.3868,-0.3855,-0.3852,-0.3851,-0.3845,-0.3845,-0.3845,-0.3844,-0.3844,-0.3839,-0.3839,0,0,0,0,0,0,-0.3904,-0.3901,-0.3886,-0.3885,-0.3892,-0.3881,-0.3879,-0.3876,-0.3865,-0.3863,-0.3868,-0.3867,-0.3853,-0.3852,-0.3851,-0.3851,-0.3845,-0.3844,-0.3844,-0.3839,-0.3839,-0.3839,0,0,0,0,0,0,-0.3905,-0.3903,-0.3887,-0.3893,-0.3891,-0.3881,-0.3877,-0.3876,-0.3873,-0.3863,-0.3861,-0.3867,-0.3853,-0.3851,-0.3848,-0.385,-0.3844,-0.3843,-0.3839,-0.3839,-0.3839,-0.385,0,0,0,0,0,0,-0.3906,-0.3903,-0.3903,-0.3893,-0.3891,-0.3884,-0.3877,-0.3875,-0.3872,-0.3871,-0.3861,-0.386,-0.3853,-0.3849,-0.3847,-0.3849,-0.3843,-0.3839,-0.3839,-0.3839,-0.3849,-0.385,-0.3851,0,0,0,0,0,-0.3906,-0.3907,-0.3903,-0.3901,-0.389,-0.3884,-0.3883,-0.3875,-0.3872,-0.3872,-0.3866,-0.386,-0.385,-0.3849,-0.3847,-0.3848,-0.3838,-0.3839,-0.3839,-0.3849,-0.385,-0.3851,0,0,0,0,0,0,-0.3917,-0.3905,-0.3901,-0.3898,-0.3893,-0.3882,-0.3882,-0.3877,-0.3872,-0.3871,-0.3862,-0.386,-0.3857,-0.3852,-0.3851,-0.3848,-0.3843,-0.3843,-0.3851,-0.3853,-0.3854,-0.3855,-0.3843,0,0,0,0,0,-0.3919,-0.3915,-0.3905,-0.3904,-0.3901,-0.3892,-0.3889,-0.3884,-0.3877,-0.3875,-0.3868,-0.3862,-0.3858,-0.3855,-0.385,-0.3849,-0.3847,-0.3849,-0.385,-0.3851,-0.3851,-0.385,-0.3851,-0.3841,-0.3841,-0.3841,0,0,-0.3923,-0.3916,-0.3915,-0.3906,-0.3901,-0.3897,-0.389,-0.3887,-0.3884,-0.3874,-0.3871,-0.3866,-0.3858,-0.3856,-0.3855,-0.3852,-0.3854,-0.3851,-0.3852,-0.3852,-0.3851,-0.3852,-0.3853,-0.3841,-0.3841,-0.3841,0,0,-0.3929,-0.3923,-0.3922,-0.3917,-0.3909,-0.3903,-0.3903,-0.3894,-0.389,-0.3886,-0.3879,-0.3876,-0.3868,-0.3863,-0.386,-0.3865,-0.3859,-0.3864,-0.3869,-0.3868,-0.3869,-0.387,-0.3872,-0.3873,-0.3864,-0.3864,-0.3864,0,-0.3935,-0.393,-0.3922,-0.3919,-0.3915,-0.3907,-0.3905,-0.3901,-0.3892,-0.389,-0.3887,-0.3877,-0.3872,-0.3868,-0.387,-0.3867,-0.3867,-0.3865,-0.387,-0.387,-0.3871,-0.3873,-0.3873,-0.3864,-0.3864,-0.3864,-0.3864,0,-0.3938,-0.3934,-0.3934,-0.3926,-0.3922,-0.392,-0.3912,-0.3909,-0.3904,-0.3899,-0.3895,-0.3888,-0.3882,-0.3881,-0.3876,-0.3877,-0.3876,-0.3872,-0.3867,-0.3873,-0.3874,-0.3875,-0.3865,-0.3865,-0.3865,-0.3865,0,0,-0.395,-0.3938,-0.3938,-0.3934,-0.3925,-0.3922,-0.392,-0.3914,-0.3912,-0.3906,-0.3904,-0.3898,-0.3895,-0.3891,-0.3885,-0.3885,-0.3889,-0.388,-0.388,-0.3882,-0.389,-0.3894,-0.3895,-0.3886,-0.3886,-0.3886,-0.3891,0,-0.3954,-0.395,-0.3942,-0.394,-0.3937,-0.3929,-0.3927,-0.3921,-0.3916,-0.3913,-0.3907,-0.3903,-0.3898,-0.3896,-0.3895,-0.3889,-0.3891,-0.3888,-0.3884,-0.3884,-0.3886,-0.3895,-0.3899,-0.3904,-0.3892,-0.3892,-0.3892,0,-0.3959,-0.3954,-0.3951,-0.3943,-0.3942,-0.394,-0.3934,-0.3931,-0.3925,-0.3921,-0.3917,-0.3911,-0.3908,-0.3904,-0.39,-0.3899,-0.3897,-0.3894,-0.3894,-0.3893,-0.3888,-0.3895,-0.3905,-0.3906,-0.3892,-0.3892,-0.3892,0,-0.3968,-0.3961,-0.3959,-0.3956,-0.3946,-0.3945,-0.3941,-0.3935,-0.3932,-0.3927,-0.3925,-0.392,-0.3917,-0.3913,-0.3906,-0.3904,-0.3903,-0.3898,-0.39,-0.3901,-0.3901,-0.3901,-0.3911,-0.3899,-0.3899,-0.3899,-0.3899,0,-0.3974,-0.3973,-0.3963,-0.3961,-0.396,-0.3952,-0.395,-0.3945,-0.394,-0.3938,-0.393,-0.3928,-0.3919,-0.3916,-0.391,-0.3908,-0.3907,-0.3904,-0.3903,-0.3905,-0.3905,-0.3903,-0.3903,-0.3899,-0.3899,-0.3899,-0.3899,0,-0.3985,-0.3977,-0.3974,-0.3965,-0.3963,-0.3963,-0.3955,-0.3953,-0.3948,-0.3945,-0.3944,-0.3936,-0.3932,-0.3924,-0.3918,-0.3915,-0.3914,-0.3911,-0.3916,-0.3915,-0.3918,-0.3918,-0.3927,-0.3928,-0.3915,-0.3916,-0.3916,0,-0.3989,-0.3988,-0.3979,-0.3977,-0.3973,-0.397,-0.3967,-0.3959,-0.3956,-0.3949,-0.3949,-0.3944,-0.394,-0.3934,-0.3928,-0.3923,-0.392,-0.3924,-0.392,-0.3922,-0.3921,-0.3921,-0.3921,-0.3925,-0.3925,-0.3925,-0.3925,0,-0.3998,-0.3994,-0.399,-0.3985,-0.3982,-0.3978,-0.3973,-0.3972,-0.3963,-0.396,-0.3956,-0.3953,-0.3947,-0.3943,-0.3937,-0.3933,-0.3928,-0.3927,-0.3927,-0.3929,-0.3932,-0.3931,-0.3919,-0.3927,-0.3927,-0.3926,-0.3926,-0.3926,-0.4005,-0.4004,-0.3998,-0.3994,-0.3989,-0.3985,-0.3983,-0.3978,-0.3974,-0.3969,-0.3964,-0.3961,-0.3955,-0.3947,-0.3943,-0.3941,-0.3938,-0.3938,-0.3938,-0.3939,-0.394,-0.3933,-0.3939,-0.3939,-0.3939,-0.3939,-0.3939,0,-0.4014,-0.4009,-0.4006,-0.3999,-0.3996,-0.3992,-0.3986,-0.3984,-0.3981,-0.3976,-0.3972,-0.3968,-0.3964,-0.3957,-0.3952,-0.3951,-0.3949,-0.3951,-0.3951,-0.395,-0.3942,-0.3942,-0.3953,-0.3953,-0.3953,-0.3953,-0.3953,-0.3953,-0.4018,-0.4015,-0.4011,-0.4007,-0.4003,-0.3999,-0.3997,-0.3993,-0.3989,-0.3984,-0.3981,-0.3976,-0.3971,-0.3966,-0.3962,-0.396,-0.3959,-0.3961,-0.3959,-0.3951,-0.395,-0.3949,-0.3949,-0.3961,-0.3961,-0.3967,-0.3967,-0.3967]},{"header":{"parameterUnit":"m.s-1","parameterCategory":1,"la1":30.2991,"la2":30.254,"lo1":-89.0895,"lo2":-89.0444,"dy":0.0017,"dx":0.0017,"nx":28,"ny":28,"refTime":"2024-05-04T09:00:00:Z","depth":0,"parameterNumber":3,"parameterNumberName":"V-component_of_WINDS"},"data":[0,0,0,0,0,0,0,0,0,0,0,0,0,0,0,0,0,0,0,0,0,0,0,0,0,0,0,0,0,0,0,0,0,0,0,0,0,0,0,0,0,0,0,0,0,0,0,0,0,0,0,0,0,0,0,0,0,0,2.8135,2.8135,0,2.8135,2.8135,2.8135,2.8076,2.8074,2.8073,2.8071,2.807,2.8071,2.8073,0,0,0,0,0,0,0,0,0,0,0,0,0,2.8084,2.8085,2.8135,2.8135,2.8135,2.8135,2.8135,2.8135,2.8076,2.8074,2.8072,2.8071,2.807,2.8071,2.8073,0,0,0,0,0,0,0,0,0,0,0,0,0,2.8097,2.8085,2.8135,2.8106,2.8103,2.8135,2.8135,2.8135,2.8076,2.8074,2.8072,2.807,2.8069,2.8071,2.8073,2.8133,0,0,2.808,2.8081,0,0,0,0,0,0,0,0,2.8096,2.8099,2.811,2.8108,2.8105,2.8103,2.8116,2.8134,2.8077,2.8087,2.8071,2.8069,2.8083,2.8084,2.8089,2.8132,2.8132,2.808,2.8081,2.8082,2.8083,0,0,0,0,0,0,0,2.8095,2.8099,2.8135,2.811,2.8107,2.8092,2.8092,2.8119,2.8098,2.8086,2.8081,2.8082,2.8081,2.8087,2.8088,2.8132,2.808,2.8082,2.8083,2.8084,2.8225,2.8227,0,0,0,0,0,0,2.8099,2.8098,2.8135,2.8135,2.8095,2.8095,2.8094,2.8106,2.8097,2.8094,2.8084,2.8079,2.8084,2.8086,2.8088,2.8157,2.8082,2.8084,2.8085,2.8223,2.8226,2.8228,0,0,0,0,0,0,2.8098,2.8102,2.8135,2.8115,2.8118,2.8098,2.8112,2.8107,2.8113,2.8096,2.8092,2.8094,2.8083,2.8085,2.8122,2.8156,2.8085,2.8087,2.822,2.8223,2.8227,2.8296,0,0,0,0,0,0,2.8097,2.8103,2.8125,2.8116,2.812,2.8169,2.8114,2.8109,2.8117,2.8111,2.8104,2.8101,2.8081,2.8119,2.8124,2.8158,2.8089,2.8216,2.8221,2.8226,2.829,2.8301,2.8311,0,0,0,0,0,2.8095,2.8144,2.8127,2.8131,2.8147,2.8171,2.8173,2.8149,2.812,2.8142,2.8131,2.8101,2.8152,2.8123,2.8128,2.8163,2.8214,2.822,2.8225,2.8286,2.8299,2.831,0,0,0,0,0,0,2.8157,2.8142,2.8123,2.8171,2.8173,2.8161,2.8189,2.8164,2.8175,2.8168,2.8138,2.8137,2.8179,2.8175,2.8144,2.822,2.8178,2.8184,2.8222,2.8234,2.8244,2.8245,2.809,0,0,0,0,0,2.8176,2.8197,2.8183,2.8227,2.8229,2.8209,2.8219,2.82,2.8201,2.8201,2.8193,2.8195,2.8211,2.8222,2.8236,2.8289,2.8287,2.8316,2.8326,2.8334,2.8341,2.8369,2.8381,2.8247,2.8247,2.8246,0,0,2.8216,2.8211,2.8226,2.8239,2.8239,2.8261,2.821,2.8236,2.8252,2.8205,2.824,2.8234,2.8234,2.8279,2.8299,2.8277,2.8377,2.8341,2.8348,2.835,2.8376,2.8388,2.84,2.825,2.825,2.8249,0,0,2.8301,2.8299,2.8335,2.8336,2.8336,2.8322,2.8331,2.8323,2.8318,2.8352,2.8318,2.8336,2.8365,2.8366,2.8371,2.8456,2.8429,2.8461,2.8515,2.8542,2.8553,2.8562,2.8593,2.8604,2.8468,2.8468,2.8468,0,2.835,2.8383,2.8357,2.8385,2.8392,2.8351,2.8387,2.8389,2.8393,2.8399,2.8375,2.841,2.8407,2.8452,2.8473,2.8478,2.8487,2.8462,2.8554,2.8563,2.8571,2.86,2.8611,2.8472,2.8471,2.8471,2.8471,0,2.8444,2.8467,2.8496,2.8502,2.8512,2.8545,2.8523,2.8536,2.8517,2.8506,2.8542,2.8537,2.8549,2.8558,2.8539,2.8601,2.8588,2.8559,2.8515,2.8588,2.8615,2.8626,2.8477,2.8476,2.8475,2.8474,0,0,2.8568,2.8559,2.857,2.8572,2.857,2.8587,2.8617,2.8629,2.8641,2.8646,2.8671,2.8696,2.8669,2.8674,2.8655,2.868,2.8748,2.8648,2.8647,2.8667,2.8816,2.8838,2.8851,2.873,2.8732,2.8733,2.8816,0,2.865,2.8701,2.8679,2.8732,2.8754,2.8715,2.8741,2.8742,2.8733,2.8749,2.8738,2.8757,2.872,2.8723,2.8745,2.8735,2.8777,2.8729,2.8752,2.8754,2.8754,2.8865,2.8888,2.8966,2.8826,2.8828,2.8829,0,2.8752,2.8762,2.8818,2.8811,2.8819,2.8843,2.8853,2.8869,2.8869,2.8861,2.8867,2.8842,2.8871,2.8828,2.8868,2.8835,2.8843,2.884,2.8842,2.8844,2.8796,2.887,2.899,2.9003,2.8845,2.8844,2.8843,0,2.8837,2.8864,2.8901,2.8904,2.8897,2.8915,2.8913,2.8911,2.892,2.8928,2.8934,2.8946,2.8952,2.8961,2.8941,2.8911,2.8983,2.8938,2.8977,2.8978,2.8994,2.8994,2.9119,2.8999,2.8999,2.8999,2.8999,0,2.8931,2.8967,2.8939,2.8962,2.9001,2.8974,2.9014,2.9007,2.9006,2.9027,2.8994,2.9014,2.8985,2.9003,2.8987,2.9022,2.9025,2.9019,2.9014,2.9022,2.9023,2.9027,2.9022,2.9002,2.9001,2.9001,2.9,0,2.9033,2.9015,2.9053,2.9044,2.9042,2.9072,2.9064,2.9084,2.9072,2.9099,2.9104,2.9086,2.9104,2.9085,2.9102,2.9091,2.9139,2.9126,2.9139,2.9136,2.9176,2.9172,2.9308,2.9325,2.9195,2.9196,2.9197,0,2.9094,2.9121,2.9115,2.9127,2.9127,2.9146,2.9155,2.913,2.9141,2.9144,2.9164,2.918,2.9192,2.9223,2.9212,2.9225,2.9212,2.9259,2.9214,2.9221,2.9213,2.9212,2.9215,2.9268,2.927,2.9271,2.9272,0,2.9205,2.9195,2.921,2.9222,2.9234,2.9242,2.9247,2.9259,2.9233,2.9247,2.9266,2.9275,2.9293,2.9309,2.9319,2.9316,2.929,2.9286,2.9296,2.9304,2.9311,2.9308,2.9165,2.9283,2.9282,2.9281,2.9281,2.928,2.9289,2.9311,2.931,2.9328,2.9329,2.9335,2.9354,2.9345,2.9361,2.9374,2.9358,2.9381,2.9381,2.9391,2.9392,2.941,2.939,2.9404,2.9408,2.9412,2.9418,2.9308,2.9411,2.9411,2.9411,2.941,2.941,0,2.9398,2.9396,2.9412,2.9421,2.9435,2.941,2.9414,2.9428,2.9449,2.9451,2.9463,2.9485,2.9501,2.949,2.9504,2.952,2.9509,2.9525,2.9523,2.9523,2.9435,2.9425,2.9534,2.9534,2.9534,2.9534,2.9534,2.9534,2.9457,2.9493,2.9484,2.952,2.9517,2.9541,2.9546,2.9551,2.9552,2.9579,2.9592,2.9585,2.9582,2.9595,2.9608,2.9605,2.9611,2.9632,2.9624,2.9542,2.953,2.9518,2.9509,2.9634,2.9634,2.9712,2.9712,2.9713]}]]